Regional Weather Roundup
Issued by NWS

Home | Current Version | Previous Version | Graphics & Text | Print | Product List | Glossary On
Versions: 1 2 3 4 5 6 7 8 9 10 11 12 13 14 15 16 17 18 19 20 21 22 23 24 25 26 27 28 29 30 31 32 33 34 35 36 37 38 39 40 41 42 43 44 45 46 47 48 49 50
836
ASUS43 KOAX 302302
RWRNE

WEATHER ROUNDUP FOR NEBRASKA
NATIONAL WEATHER SERVICE OMAHA NE
600 PM CDT THU MAR 30 2017

NOTES: SATELLITE DATA IS BEING USED TO AUGMENT CLOUD COVER ABOVE
       12000 FEET.
       "FAIR" INDICATES FEW OR NO CLOUDS BELOW 12,000 FEET WITH NO
       SIGNIFICANT WEATHER AND/OR OBSTRUCTIONS TO VISIBILITY.

  * THESE STATIONS DO NOT REPORT WEATHER SUCH AS RAIN...SNOW OR FOG.

NEZ001>004-019>022-054>056-310000-
NEBRASKA PANHANDLE

CITY           SKY/WX    TMP DP  RH WIND       PRES   REMARKS
SCOTTSBLUFF    CLOUDY    58  38  47 E12       29.67S
ALLIANCE       PTSUNNY   57  35  43 SE10      29.67F
CHADRON        CLOUDY    59  39  47 E9        29.67F
KIMBALL        CLOUDY    55  47  74 SE10      29.70R
SIDNEY         CLOUDY    57  39  51 SE10      29.69S
$$

NEZ057>060-069>072-079>082-310000-
SOUTHWEST NEBRASKA

CITY           SKY/WX    TMP DP  RH WIND       PRES   REMARKS
NORTH PLATTE   MOSUNNY   51  36  56 E10       29.74R
IMPERIAL       SUNNY     59  36  42 E3        29.69F
LEXINGTON      CLOUDY    44  37  76 N8        29.76S
MCCOOK         SUNNY     51  40  65 E12       29.74R
OGALLALA       SUNNY     57  38  47 E8        29.70F
$$

NEZ005>010-023>029-035>040-094-310000-
NORTH CENTRAL NEBRASKA

CITY           SKY/WX    TMP DP  RH WIND       PRES   REMARKS
VALENTINE      CLOUDY    44  34  67 E12       29.77S
AINSWORTH      CLOUDY    44  36  73 NE8       29.77S
BROKEN BOW     CLOUDY    44  34  67 N8        29.75S
O`NEILL        CLOUDY    44  37  76 N8        29.78S
ORD            CLOUDY    43  35  73 N13       29.76S
THEDFORD       CLOUDY    46  36  69 E5        29.77R
$$

NEZ041-046>049-061>064-073>077-083>087-310000-
SOUTH CENTRAL NEBRASKA

CITY           SKY/WX    TMP DP  RH WIND       PRES   REMARKS
GRAND ISLAND   CLOUDY    44  39  82 N12       29.76R
AURORA         CLOUDY    43  40  88 N13       29.76R
HASTINGS       CLOUDY    45  38  76 N13       29.76S
HEBRON         CLOUDY    44  39  85 N12       29.76R
HOLDREGE       CLOUDY    45  37  72 N10       29.74F
KEARNEY *      CLOUDY    46  36  66 N12       29.76S
YORK           CLOUDY    43  41  93 N15       29.75R
$$

NEZ011>018-030>034-042>045-310000-
NORTHEAST NEBRASKA

CITY           SKY/WX    TMP DP  RH WIND       PRES   REMARKS
NORFOLK        CLOUDY    43  36  76 N16       29.76R
ALBION         CLOUDY    44  37  77 N8        29.77R
BLAIR          CLOUDY    43  39  88 N14G23    29.73R
FREMONT        CLOUDY    43  39  86 N10G16    29.75R
TEKAMAH        CLOUDY    44  39  82 N15       29.75R
WAYNE          CLOUDY    43  40  90 N14       29.76S
$$

NEZ050>053-065>068-078-088>093-310000-
SOUTHEAST NEBRASKA

CITY           SKY/WX    TMP DP  RH WIND       PRES   REMARKS
LINCOLN        CLOUDY    44  40  85 N15       29.75R
OMAHA EPPLEY   CLOUDY    44  38  79 N14       29.73R
BEATRICE       CLOUDY    45  42  89 N15       29.73R
FALLS CITY     CLOUDY    44  41  89 N15G22    29.69R
NEBRASKA CITY  CLOUDY    43  43  97 N9        29.71R
PLATTSMOUTH    CLOUDY    44  38  79 N8        29.72R
$$

NEZ044-045-051>053-067-310000-
OMAHA AREA

CITY           SKY/WX    TMP DP  RH WIND       PRES   REMARKS
OMAHA EPPLEY   CLOUDY    44  38  79 N14       29.73R
BLAIR          CLOUDY    43  39  88 N14G23    29.73R
FREMONT        CLOUDY    43  39  86 N10G16    29.75R
MILLARD        CLOUDY    46  41  82 N9        29.73R
OFFUTT AFB     CLOUDY    44  39  83 N9        29.72R
PLATTSMOUTH    CLOUDY    44  38  79 N8        29.72R
WAHOO          CLOUDY    43  40  88 N13       29.74R
$$




USA.gov is the U.S. government's official web portal to all federal, state and local government web resources and services.